User: anonymous   Login
Location: Fort Wayne
(41.1310°N, 85.1290°W)
Time: 06:00:56
(UTC-04:00)
Language:

CZ-2C R/B - Orbit

View from above orbital plane
View from above orbital plane
View from above satellite
View from above satellite

Ground track
Ground track

The orbit data is extracted from the following two-line orbital elements,

1 36089U 09061B   15140.70893332  .00000166  00000-0  53069-4 0  9998
2 36089 098.0725 164.9446 0081427 220.4127 255.3119 14.49440158291821
Epoch (UTC): 20 May 2015 17:00:51
Eccentricity: 0.0081427
inclination: 98.0725°
perigee height: 669 km
apogee height: 785 km
right ascension of ascending node: 164.9446°
argument of perigee: 220.4127°
revolutions per day: 14.49440158
mean anomaly at epoch: 255.3119°
orbit number at epoch: 29182

The dashed part of the orbit path shows where the satellite is in the earth's shadow,  

DLR